Park Rapids, MN

11:46 PM CST on February 19, 2017 (GMT -0600)
Park Rapids Municipal

Weather History for KPKD - September, 2012

Change the Weather History Date:

Wednesday, September 5, 2012

  Actual Average Record
Temperature  
Mean Temperature 63 °F -  
Max Temperature 75 °F 74 °F 93 °F (2007)
Min Temperature 50 °F 49 °F 30 °F (1972)
Degree Days  
Heating Degree Days 2    
Growing Degree Days 13 (Base 50)    
Moisture  
Dew Point 46 °F    
Average Humidity 57    
Maximum Humidity 84    
Minimum Humidity 35    
Precipitation  
Precipitation 0.00 in - - ()
Sea Level Pressure  
Sea Level Pressure 29.86 in    
Wind  
Wind Speed 9 mph (WNW)    
Max Wind Speed 20 mph    
Max Gust Speed 29 mph    
Visibility 10 miles    
Events      
Averages and records for this station are not official NWS values.
T = Trace of Precipitation, MM = Missing Value Source: NWS Daily Summary

Daily Weather History Graph

Daily Weather History Graph

Search for Another Location

Airport or City:

Trip Planner

Search our weather history database for the weather conditions in past years. The results will help you decide how hot, cold, wet, or windy it might be!

Date:

Astronomy

Sep. 05, 2012 Rise Set
Actual Time 6:45 AM CDT 7:50 PM CDT
Civil Twilight 6:14 AM CDT 8:21 PM CDT
Nautical Twilight 5:37 AM CDT 8:59 PM CDT
Astronomical Twilight 4:57 AM CDT 9:38 PM CDT
Moon 9:56 PM CDT (9/5) 12:14 PM CDT (9/5)
Length of Visible Light 14h 07m
Length of Day
13h 05m
Waning Gibbous, 76% of the Moon is Illuminated
Sep 5
Waning Gibbous
Sep 8
Last Quarter
Sep 15
New
Sep 22
First Quarter
Sep 29
Full

Hourly Weather History & Observations

Time (CDT) Temp. Dew Point Humidity Pressure Visibility Wind Dir Wind Speed Gust Speed Precip Events Conditions
12:53 AM 60.1 °F 52.0 °F 75% 29.83 in 10.0 mi West 8.1 mph - N/A   Clear
1:53 AM 61.0 °F 48.9 °F 64% 29.81 in 10.0 mi WNW 6.9 mph - N/A   Clear
2:53 AM 61.0 °F 48.9 °F 64% 29.83 in 10.0 mi West 9.2 mph - N/A   Mostly Cloudy
3:53 AM 62.1 °F 46.0 °F 56% 29.80 in 10.0 mi NNW 8.1 mph - N/A   Partly Cloudy
4:53 AM 57.9 °F 45.0 °F 62% 29.81 in 10.0 mi NNW 4.6 mph - N/A   Clear
5:53 AM 55.9 °F 46.9 °F 72% 29.86 in 10.0 mi WNW 3.5 mph - N/A   Mostly Cloudy
6:53 AM 55.9 °F 48.0 °F 75% 29.86 in 10.0 mi SSW 4.6 mph - 0.00 in   Mostly Cloudy
7:53 AM 55.9 °F 51.1 °F 84% 29.87 in 10.0 mi West 4.6 mph - 0.00 in   Mostly Cloudy
8:53 AM 59.0 °F 51.1 °F 75% 29.87 in 10.0 mi West 9.2 mph - N/A   Mostly Cloudy
9:53 AM 64.0 °F 46.9 °F 54% 29.87 in 10.0 mi West 12.7 mph - N/A   Clear
10:53 AM 69.1 °F 46.0 °F 44% 29.87 in 10.0 mi WNW 13.8 mph - N/A   Clear
11:53 AM 71.1 °F 44.1 °F 38% 29.86 in 10.0 mi WNW 18.4 mph - N/A   Clear
12:53 PM 71.1 °F 43.0 °F 36% 29.86 in 10.0 mi NW 19.6 mph 28.8 mph N/A   Scattered Clouds
1:53 PM 72.0 °F 43.0 °F 35% 29.85 in 10.0 mi WNW 15.0 mph 25.3 mph N/A   Partly Cloudy
2:53 PM 72.0 °F 43.0 °F 35% 29.85 in 10.0 mi WNW 13.8 mph - N/A   Partly Cloudy
3:53 PM 72.0 °F 44.1 °F 37% 29.85 in 10.0 mi WNW 11.5 mph 21.9 mph N/A   Mostly Cloudy
4:53 PM 71.1 °F 43.0 °F 36% 29.85 in 10.0 mi NW 15.0 mph - N/A   Mostly Cloudy
5:53 PM 72.0 °F 43.0 °F 35% 29.86 in 10.0 mi West 15.0 mph 19.6 mph N/A   Partly Cloudy
6:53 PM 68.0 °F 43.0 °F 40% 29.86 in 10.0 mi West 9.2 mph - N/A   Mostly Cloudy
7:53 PM 62.1 °F 45.0 °F 53% 29.87 in 10.0 mi West 6.9 mph - N/A   Mostly Cloudy
8:53 PM 55.0 °F 45.0 °F 69% 29.89 in 10.0 mi SW 5.8 mph - N/A   Clear
9:53 PM 57.0 °F 46.0 °F 67% 29.89 in 10.0 mi Calm Calm - N/A   Clear
10:53 PM 54.0 °F 45.0 °F 72% 29.89 in 10.0 mi West 4.6 mph - N/A   Clear
11:53 PM 50.0 °F 45.0 °F 83% 29.90 in 10.0 mi WSW 5.8 mph - N/A   Clear